Location: Prairie View Elementary School
(39.8322°N, 99.5698°W)
Time: 17:13:54
(UTC+00:00)

NOAA 15 - Pass Details

Date: 08 December 2019
Orbit: 798 x 812 km, 98.7° (Epoch: 19 January)

Event Time Altitude Azimuth Distance (km) Brightness Sun altitude
Rises 00:51:38 0° 157° (SSE) 3,305 7.7 -18.3°
Reaches altitude 10° 00:53:58 10° 154° (SSE) 2,376 6.9 -18.7°
Maximum altitude 00:59:10 66° 73° (ENE) 878 4.5 -19.7°
Drops below altitude 10° 01:04:23 10° 353° (N) 2,383 7.0 -20.7°
Sets 01:06:43 0° 350° (N) 3,316 7.8 -21.1°
